(192) Nausikaa
ephemeris date magn radius delta ra dec elong phase
Opposition28 Apr 202511.22.906 AU1.907 AU14h11m-22°17'171.5°2.9°
Today11 May 202511.42.891 AU1.912 AU13h59m-21°23'162.7°6.0°
(192) Nausikaa - 2025-05-11
astro.vanbuitenen.nl


 
-1 year
-1 month
-1 day
Now
+1 day
+1 month
+1 year

The interactive orbit chart above shows the body's path through the solar system and its position at the given date. Green and blue lines are shown perpendicular to the ecliptic plane: Green if the path is above the ecliptic plane, blue if it is below. (Left-click and drag to rotate the view; Right-click and drag to move the view; Use scroll wheel to zoom in our out.)

The orbital elements of Nausikaa are:

            e (Eccentricity)                : 0.2453786
            a (Semimajor axis)              : 2.4031767
            i (Inclination)                 : 6.79567
            Ω (Longitude of ascending node) : 343.08235
            ω (Argument of perihelion)      : 30.58684
            M (Mean anomaly)                : 220.45739
            Epoch                           : 2025 May 05

            L (Longitude of perihelion)     : 13.49254
            B (Latitude of perihelion)      : 3.45192
            P (Orbital period in years)     : 3.73            
        

The light curve chart below shows the estimated development of the minor planet's magnitude.


The all-sky chart below shows the path of the minor planet over the same period as the light curve. The current position is marked yellow.





The following chart shows the path of the minor planet in the next few days. The field of view is optimized for (~10x50) binoculars and finderscopes. A more printer-friendly version of the same chart can be found below.




Ephemerides:
Date       Time       RA (2000)    DEC (2000)    delta   radius  elong  phase   PA    magn
2025-05-11 00:00 UT   13 59 00.0   -21 23 48     1.912    2.891  162.7    6.0    81   11.4 
2025-05-11 01:50 UT   13 58 55.7   -21 23 27     1.912    2.891  162.6    6.0    81   11.4 
2025-05-12 00:00 UT   13 58 04.1   -21 19 08     1.914    2.890  161.6    6.3    83   11.4 
2025-05-13 00:00 UT   13 57 09.1   -21 14 27     1.916    2.889  160.6    6.7    85   11.4 
2025-05-14 00:00 UT   13 56 15.0   -21 09 44     1.919    2.887  159.5    7.0    86   11.4 
2025-05-15 00:00 UT   13 55 21.8   -21 05 01     1.922    2.886  158.4    7.4    88   11.5 
2025-05-16 00:00 UT   13 54 29.7   -21 00 17     1.925    2.885  157.3    7.8    89   11.5 
2025-05-17 00:00 UT   13 53 38.5   -20 55 33     1.929    2.883  156.2    8.1    90   11.5 
2025-05-18 00:00 UT   13 52 48.5   -20 50 49     1.933    2.882  155.1    8.5    92   11.5 
2025-05-19 00:00 UT   13 51 59.6   -20 46 05     1.937    2.881  154.0    8.8    93   11.5 
2025-05-20 00:00 UT   13 51 11.9   -20 41 23     1.941    2.879  152.9    9.2    93   11.6 
2025-05-21 00:00 UT   13 50 25.4   -20 36 41     1.946    2.878  151.9    9.5    94   11.6 
2025-05-22 00:00 UT   13 49 40.1   -20 32 02     1.951    2.877  150.8    9.9    95   11.6 
2025-05-23 00:00 UT   13 48 56.1   -20 27 24     1.956    2.875  149.7   10.2    96   11.6 
2025-05-24 00:00 UT   13 48 13.4   -20 22 48     1.961    2.874  148.6   10.6    97   11.6 
2025-05-25 00:00 UT   13 47 32.1   -20 18 15     1.967    2.873  147.5   10.9    97   11.6 
2025-05-26 00:00 UT   13 46 52.1   -20 13 45     1.972    2.871  146.4   11.3    98   11.7 
2025-05-27 00:00 UT   13 46 13.5   -20 09 19     1.978    2.870  145.3   11.6    98   11.7 
2025-05-28 00:00 UT   13 45 36.3   -20 04 56     1.985    2.868  144.2   11.9    99   11.7 
2025-05-29 00:00 UT   13 45 00.6   -20 00 36     1.991    2.867  143.1   12.2   100   11.7 
2025-05-30 00:00 UT   13 44 26.4   -19 56 21     1.998    2.866  142.1   12.6   100   11.7 
2025-05-31 00:00 UT   13 43 53.6   -19 52 10     2.004    2.864  141.0   12.9   101   11.8 
2025-06-01 00:00 UT   13 43 22.4   -19 48 04     2.011    2.863  139.9   13.2   101   11.8 
2025-06-02 00:00 UT   13 42 52.6   -19 44 03     2.019    2.861  138.9   13.5   101   11.8 
2025-06-03 00:00 UT   13 42 24.4   -19 40 07     2.026    2.860  137.8   13.8   102   11.8 
2025-06-04 00:00 UT   13 41 57.8   -19 36 17     2.034    2.858  136.8   14.1   102   11.8 
2025-06-05 00:00 UT   13 41 32.6   -19 32 32     2.042    2.857  135.7   14.4   103   11.8 
2025-06-06 00:00 UT   13 41 09.0   -19 28 53     2.049    2.856  134.7   14.6   103   11.9 
2025-06-07 00:00 UT   13 40 47.0   -19 25 20     2.058    2.854  133.6   14.9   103   11.9 
2025-06-08 00:00 UT   13 40 26.5   -19 21 52     2.066    2.853  132.6   15.2   104   11.9 
2025-06-09 00:00 UT   13 40 07.6   -19 18 32     2.074    2.851  131.6   15.4   104   11.9 
2025-06-10 00:00 UT   13 39 50.2   -19 15 17     2.083    2.850  130.6   15.7   104   11.9 


    Terminology:
            
    delta:  distance between minor planet and earth in AU
    radius: distance between minor planet and sun in AU
    magn:   magnitude (brightness) estimate    
    ra:     right ascension in hours (24h = 360deg)
    dec:    declination in degrees
    elong:  elongation in degrees (angle sun-earth-minor planet)    
    phase:  phase angle in degrees (angle sun-minor planet-earth)        
    AU:     Astronomical Unit (mean distance between earth and sun: 149597870.7 km
    

Orbital elements provided by the MPC (Minor Planet Center).
Calculations by a modified version of AAPlus, a C# implementation of the AA+ project by PJ Naughter from the algorithms presented in the book "Astronomical Algorithms" by Jean Meeus.
NGC2000 dso catalog and star labels from VizieR as provided by the Strasbourg astronomical Data Center.
Tycho2 catalog from the ESO archive.